Погода в Болгатанге

Гана     10°47′31″N   0°51′31″E
В апреле 2022 года жителям России запретили посещать сайт meteo.paraplan.net по решению Генеральной прокуратуры. Аудитория сайта уменьшилась в 10 раз. Владельцы сайта не видят смысла в поддержке погодного сервера в таких условиях. Сайт будет закрыт в октябре.
темп.,
°C
ветер,
м/с
пор.,
м/с
влажн.,
%
обл.,
%
осадки,
мм/ч
давл.,
гПа
погр.,
м
30 сентября, пт
пт3000:00+23ююз228917 0.0 101235
03:00+23юз129137 0.0 101033
06:00+22юз229376 0.3 101142
09:00+27юз237432 0.0 1013588
12:00+31ююв1258100 0.1 10111432
15:00+31вюв3358100 0.7 10091387
18:00+25ююв258288 1.1 1009114
21:00+24ююв2283100 0.0 101147
1 октября, сб
сб100:00+23ююв118622 0.0 101112
03:00+23ю0083100 0.0 101016
06:00+23юз0084100 0.0 101113
09:00+24ююв018188 0.0 1013161
12:00+30юв345626 0.0 10121195
15:00+31юв235356 0.0 10091565
18:00+26ююв357419 0.0 1010123
21:00+24ююв2683100 0.0 1013184
2 октября, вс
вс200:00+23ююв2895100 2.8 1013345
03:00+22ю2496100 1.0 1013166
06:00+22ю2696100 1.0 1014232
09:00+26ю357951 0.0 1016700
12:00+30ю346199 0.0 10131400
15:00+28ююз347199 0.1 1011650
18:00+26ююз248099 0.1 101290
21:00+25ююз228498 0.0 101443
3 октября, пн
пн300:00+24ююз23875 0.0 101469
03:00+23ююз12925 0.0 101352
06:00+22юз119479 0.0 101430
09:00+27зюз2275100 0.0 1015527
12:00+31юз446049 0.0 1011956
15:00+32юз225490 0.0 10091379
18:00+28юз2271100 0.0 100922
21:00+26ю237790 0.0 101159
4 октября, вт
вт400:00+25ююз388632 0.1 1010215
03:00+24юз398939 0.0 1008317
06:00+23юз27925 0.0 1010238
09:00+28юз467113 0.0 1011663
12:00+32юз345517 0.0 10091360
15:00+33юз335290 0.0 10061790
18:00+29ю377177 0.1 1008190
21:00+27ююз287671 0.3 1010258